Find Starlink 11282

NORAD ID: 60992 Int'l Des: 2024-158 Owner: SPXS Country: US Constellation: starlink operational
別名: STARLINK-11282 [DTC] celestrak
LEOCIRCULAR

現在のビュー

3D地球を読み込み中...

About Starlink 11282

Starlink 11282 (NORAD 60992) is a starlink constellation satellite (v2 mini d2c) launched Sep 5, 2024 by SPXS of US. It operates in LEO, CIRCULAR orbit with a mass of 960.00 kg.

次回通過

Passes for default location (London). Set your location on the main map for personalized predictions.

高度履歴

Loading altitude history...

軌道要素

1 60992U 24158C 26263.57166075 .00000100 00000-0 56850-5 0 9992
2 60992 53.1588 40.5288 0001365 82.8459 277.2714 15.69709750118207
Epoch: Sep 20, 2026 • Age: 20 hours

現在のステータス

高度 359.6 km
遠地点 / 近地点 N/A
速度 7.70 km/s
衛星直下点 14.38°N, 97.75°W
打ち上げ日 Sep 5, 2024
運用期間 2 years
タイプ internet

技術仕様

分類 Payload
質量 960.00 kg
乾燥質量 910.00 kg
長さ 0.30 m
スパン 29.00 m
形状 ? Box + pan
製造者 SPXS
バスタイプ Starlink V2MD
フェーズステータス In Orbit
所有者/国 SPXS/US

Most Searched